Weather History for KOXV - February, 2013

Change the Weather History Date:

Sunday, February 3, 2013

  Actual Average Record
Temperature  
Mean Temperature 24 °F -  
Max Temperature 32 °F 30 °F 62 °F (1992)
Min Temperature 17 °F 12 °F -15 °F (1989)
Degree Days  
Heating Degree Days 40    
Moisture  
Dew Point 14 °F    
Average Humidity 64    
Maximum Humidity 80    
Minimum Humidity 44    
Precipitation  
Precipitation 0.00 in - - ()
Sea Level Pressure  
Sea Level Pressure 30.03 in    
Wind  
Wind Speed 14 mph (WSW)    
Max Wind Speed 25 mph    
Max Gust Speed 38 mph    
Visibility 9 miles    
Events Snow    
Averages and records for this station are not official NWS values.
T = Trace of Precipitation, MM = Missing Value Source: NWS Daily Summary

Daily Weather History Graph

Daily Weather History Graph

Search for Another Location

Airport or City:

Trip Planner

Search our weather history database for the weather conditions in past years. The results will help you decide how hot, cold, wet, or windy it might be!

Date:

Astronomy

Feb. 03, 2013 Rise Set
Actual Time 7:21 AM CST 5:31 PM CST
Civil Twilight 6:52 AM CST 6:00 PM CST
Nautical Twilight 6:19 AM CST 6:33 PM CST
Astronomical Twilight 5:47 AM CST 7:06 PM CST
Moon 12:49 AM CST (2/3) 11:08 AM CST (2/3)
Length of Visible Light 11h 08m
Length of Day
10h 10m
Waning Gibbous, 48% of the Moon is Illuminated
Feb 3
Waning Gibbous
Feb 10
New
Feb 17
First Quarter
Feb 25
Full
Mar 4
Last Quarter

Hourly Weather History & Observations

Time (CST) Temp. Windchill Dew Point Humidity Pressure Visibility Wind Dir Wind Speed Gust Speed Precip Events Conditions
12:15 AM 26.6 °F 16.2 °F 21.2 °F 80% 29.97 in 10.0 mi WSW 11.5 mph - N/A   Overcast
12:35 AM 28.4 °F 18.0 °F 23.0 °F 80% 29.97 in 10.0 mi West 12.7 mph - N/A   Overcast
12:55 AM 30.2 °F 18.9 °F 24.8 °F 80% 29.97 in 10.0 mi WNW 16.1 mph 21.9 mph N/A   Overcast
1:15 AM 32.0 °F 20.8 °F 24.8 °F 75% 29.98 in 10.0 mi WNW 17.3 mph 25.3 mph N/A   Overcast
1:35 AM 32.0 °F 19.2 °F 24.8 °F 75% 29.99 in 10.0 mi WNW 23.0 mph 29.9 mph N/A   Overcast
1:55 AM 30.2 °F 16.5 °F 24.8 °F 80% 30.00 in 7.0 mi WNW 24.2 mph 32.2 mph N/A   Overcast
2:15 AM 30.2 °F 17.1 °F 23.0 °F 75% 30.01 in 10.0 mi WNW 21.9 mph 26.5 mph N/A   Overcast
2:35 AM 28.4 °F 14.1 °F 21.2 °F 74% 30.02 in 3.0 mi NW 24.2 mph 31.1 mph N/A Snow Light Snow
2:55 AM 26.6 °F 12.4 °F 21.2 °F 80% 30.04 in 1.8 mi WNW 21.9 mph 35.7 mph N/A Snow Light Snow
3:15 AM 26.6 °F 11.7 °F 19.4 °F 74% 30.05 in 2.5 mi WNW 24.2 mph 32.2 mph N/A Snow Light Snow
3:35 AM 26.6 °F 11.7 °F 19.4 °F 74% 30.06 in 3.0 mi NW 24.2 mph 29.9 mph N/A Snow Light Snow
3:55 AM 24.8 °F 9.0 °F 17.6 °F 74% 30.06 in 1.8 mi NW 25.3 mph 32.2 mph N/A Snow Light Snow
4:15 AM 24.8 °F 10.0 °F 17.6 °F 74% 30.07 in 2.5 mi NW 21.9 mph 29.9 mph N/A Snow Light Snow
4:35 AM 21.2 °F 4.2 °F 15.8 °F 80% 30.09 in 0.8 mi NW 25.3 mph 38.0 mph N/A Snow Light Snow
4:55 AM 21.2 °F 6.4 °F 12.2 °F 68% 30.09 in 5.0 mi NW 18.4 mph 26.5 mph N/A   Haze
5:15 AM 21.2 °F 7.8 °F 14.0 °F 74% 30.10 in 2.5 mi NW 15.0 mph 29.9 mph N/A Snow Light Snow
5:35 AM 21.2 °F 5.6 °F 12.2 °F 68% 30.10 in 4.0 mi NW 20.7 mph 26.5 mph N/A   Haze
5:55 AM 19.4 °F 5.5 °F 12.2 °F 74% 30.10 in 10.0 mi WNW 15.0 mph - N/A   Clear
6:15 AM 19.4 °F 5.5 °F 12.2 °F 74% 30.11 in 10.0 mi WNW 15.0 mph 18.4 mph N/A   Clear
6:35 AM 19.4 °F 4.1 °F 12.2 °F 74% 30.12 in 10.0 mi WNW 18.4 mph - N/A   Clear
6:55 AM 17.6 °F 3.2 °F 10.4 °F 73% 30.12 in 10.0 mi WNW 15.0 mph - N/A   Clear
7:15 AM 17.6 °F 3.2 °F 10.4 °F 73% 30.13 in 7.0 mi NW 15.0 mph 23.0 mph N/A   Clear
7:35 AM 17.6 °F 3.7 °F 10.4 °F 73% 30.14 in 10.0 mi NW 13.8 mph - N/A   Clear
7:55 AM 17.6 °F 5.7 °F 10.4 °F 73% 30.15 in 10.0 mi WNW 10.4 mph 16.1 mph N/A   Clear
8:15 AM 17.6 °F 6.4 °F 10.4 °F 73% 30.14 in 10.0 mi West 9.2 mph - N/A   Clear
8:35 AM 17.6 °F 5.7 °F 10.4 °F 73% 30.15 in 10.0 mi West 10.4 mph - N/A   Clear
8:55 AM 19.4 °F 8.6 °F 10.4 °F 68% 30.16 in 10.0 mi West 9.2 mph - N/A   Clear
9:15 AM 19.4 °F 6.0 °F 10.4 °F 68% 30.16 in 10.0 mi West 13.8 mph - N/A   Clear
9:35 AM 21.2 °F 8.9 °F 10.4 °F 63% 30.17 in 10.0 mi West 12.7 mph - N/A   Clear
9:55 AM 21.2 °F 8.9 °F 10.4 °F 63% 30.17 in 10.0 mi WNW 12.7 mph - N/A   Clear
10:15 AM 21.2 °F 8.9 °F 10.4 °F 63% 30.17 in 10.0 mi WNW 12.7 mph - N/A   Clear
10:35 AM 21.2 °F 10.9 °F 10.4 °F 63% 30.17 in 10.0 mi West 9.2 mph - N/A   Clear
10:55 AM 23.0 °F 12.4 °F 10.4 °F 59% 30.16 in 10.0 mi WSW 10.4 mph - N/A   Clear
11:15 AM 24.8 °F 15.3 °F 12.2 °F 59% 30.16 in 10.0 mi West 9.2 mph - N/A   Clear
11:35 AM 24.8 °F 16.1 °F 12.2 °F 59% 30.17 in 10.0 mi West 8.1 mph - N/A   Scattered Clouds
11:55 AM 24.8 °F 15.3 °F 12.2 °F 59% 30.15 in 10.0 mi West 9.2 mph - N/A   Overcast
12:15 PM 24.8 °F 16.9 °F 12.2 °F 59% 30.15 in 10.0 mi West 6.9 mph - N/A   Overcast
12:35 PM 26.6 °F 20.0 °F 12.2 °F 55% 30.13 in 10.0 mi West 5.8 mph - N/A   Overcast
12:55 PM 26.6 °F 18.2 °F 12.2 °F 55% 30.12 in 10.0 mi WSW 8.1 mph - N/A   Overcast
1:15 PM 28.4 °F 19.1 °F 12.2 °F 51% 30.11 in 10.0 mi WSW 10.4 mph - N/A   Overcast
1:35 PM 28.4 °F 20.4 °F 12.2 °F 51% 30.09 in 10.0 mi SW 8.1 mph - N/A   Overcast
1:55 PM 30.2 °F 21.9 °F 12.2 °F 47% 30.07 in 10.0 mi SSW 9.2 mph - N/A   Mostly Cloudy
2:15 PM 30.2 °F 22.6 °F 12.2 °F 47% 30.06 in 10.0 mi SSW 8.1 mph - N/A   Scattered Clouds
2:35 PM 30.2 °F 21.3 °F 12.2 °F 47% 30.06 in 10.0 mi SSW 10.4 mph - N/A   Clear
2:55 PM 30.2 °F 21.9 °F 12.2 °F 47% 30.04 in 10.0 mi SSW 9.2 mph - N/A   Clear
3:15 PM 32.0 °F 23.6 °F 12.2 °F 44% 30.04 in 10.0 mi SW 10.4 mph - N/A   Clear
3:35 PM 32.0 °F 24.8 °F 12.2 °F 44% 30.02 in 10.0 mi SSW 8.1 mph - N/A   Clear
3:55 PM 32.0 °F 24.2 °F 12.2 °F 44% 30.02 in 10.0 mi SW 9.2 mph - N/A   Clear
4:15 PM 32.0 °F 23.0 °F 12.2 °F 44% 30.01 in 10.0 mi South 11.5 mph - N/A   Clear
4:35 PM 30.2 °F 21.3 °F 14.0 °F 51% 30.00 in 10.0 mi South 10.4 mph - N/A   Clear
4:55 PM 30.2 °F 21.3 °F 12.2 °F 47% 29.99 in 10.0 mi South 10.4 mph - N/A   Clear
5:15 PM 28.4 °F 20.4 °F 12.2 °F 51% 29.98 in 10.0 mi South 8.1 mph - N/A   Clear
5:35 PM 28.4 °F 21.2 °F 14.0 °F 55% 29.97 in 10.0 mi South 6.9 mph - N/A   Clear
5:55 PM 26.6 °F 20.0 °F 12.2 °F 55% 29.97 in 10.0 mi South 5.8 mph - N/A   Clear
6:15 PM 26.6 °F 18.2 °F 12.2 °F 55% 29.97 in 10.0 mi South 8.1 mph - N/A   Clear
6:35 PM 26.6 °F 19.1 °F 14.0 °F 59% 29.96 in 10.0 mi South 6.9 mph - N/A   Clear
6:55 PM 24.8 °F 17.9 °F 12.2 °F 59% 29.96 in 10.0 mi SSE 5.8 mph - N/A   Clear
7:15 PM 24.8 °F 17.9 °F 12.2 °F 59% 29.95 in 10.0 mi SE 5.8 mph - N/A   Clear
7:35 PM 24.8 °F 19.1 °F 14.0 °F 64% 29.95 in 10.0 mi SE 4.6 mph - N/A   Clear
7:55 PM 24.8 °F 17.9 °F 12.2 °F 59% 29.94 in 10.0 mi SE 5.8 mph - N/A   Clear
8:15 PM 24.8 °F 17.9 °F 12.2 °F 59% 29.94 in 10.0 mi SE 5.8 mph - N/A   Clear
8:35 PM 24.8 °F 16.9 °F 12.2 °F 59% 29.93 in 10.0 mi SE 6.9 mph - N/A   Clear
8:55 PM 24.8 °F 16.9 °F 12.2 °F 59% 29.92 in 10.0 mi SSE 6.9 mph - N/A   Clear
9:15 PM 24.8 °F 16.1 °F 12.2 °F 59% 29.91 in 10.0 mi SSE 8.1 mph - N/A   Clear
9:35 PM 24.8 °F 14.6 °F 14.0 °F 64% 29.89 in 10.0 mi SSE 10.4 mph - N/A   Clear
9:55 PM 24.8 °F 15.3 °F 14.0 °F 64% 29.88 in 10.0 mi SSE 9.2 mph - N/A   Clear
10:15 PM 24.8 °F 15.3 °F 14.0 °F 64% 29.86 in 10.0 mi SSE 9.2 mph - N/A   Clear
10:35 PM 24.8 °F 14.0 °F 15.8 °F 69% 29.85 in 10.0 mi South 11.5 mph - N/A   Clear
10:55 PM 26.6 °F 16.8 °F 15.8 °F 64% 29.83 in 10.0 mi South 10.4 mph - N/A   Clear
11:15 PM 26.6 °F 16.2 °F 15.8 °F 64% 29.82 in 10.0 mi South 11.5 mph - N/A   Clear
11:35 PM 26.6 °F 15.7 °F 17.6 °F 69% 29.81 in 10.0 mi South 12.7 mph - N/A   Clear
11:55 PM 28.4 °F 17.5 °F 17.6 °F 64% 29.80 in 10.0 mi South 13.8 mph - N/A   Clear